Regional Weather Roundup
Issued by NWS

Home | Current Version | Previous Version | Text Only | Print | Product List | Glossary Off
Versions: 1 2 3 4 5 6 7 8 9 10 11 12 13 14 15 16 17 18 19 20 21 22 23 24 25 26 27 28 29 30 31 32 33 34 35 36 37 38 39 40 41 42 43 44 45 46 47 48 49 50

000
ASUS45 KBOI 231310
RWRID

IDAHO REGIONAL WEATHER ROUNDUP
NATIONAL WEATHER SERVICE BOISE ID
600 AM MST THU NOV 23 2017

NOTE: "FAIR" INDICATES FEW OR NO CLOUDS BELOW 12000 FEET
WITH NO SIGNIFICANT WEATHER AND/OR OBSTRUCTIONS TO VISIBILITY

IDZ012-014-231400-
SOUTHWEST IDAHO


CITY           SKY/WX    TMP DP  RH WIND       PRES   REMARKS
BOISE          CLOUDY    47  45  93 CALM      30.10S FOG
CALDWELL       FOG       47  47 100 CALM      30.10F VSB 1/4
MOUNTAIN HOME  CLOUDY    50  50 100 SE15      30.11F
$$

IDZ016-017-231400-
SOUTHCENTRAL IDAHO


CITY           SKY/WX    TMP DP  RH WIND       PRES   REMARKS
BURLEY         MOCLDY    52  41  66 SW9       30.15F
JEROME         CLOUDY    43  39  86 NE13      30.17F
TWIN FALLS     CLOUDY    45  41  86 NW3       30.16F
$$

IDZ019>023-231400-
SOUTHEAST IDAHO


CITY           SKY/WX    TMP DP  RH WIND       PRES   REMARKS
IDAHO FALLS    CLOUDY    34  34 100 N6        30.23F FOG     WCI  29
POCATELLO      CLOUDY    34  34 100 N9        30.21F WCI  27
REXBURG        CLOUDY    34  33  96 NE3       30.23F
$$

IDZ006-010-011-018-031-032-231400-
CENTRAL IDAHO MOUNTAINS


CITY           SKY/WX    TMP DP  RH WIND       PRES   REMARKS
MCCALL         CLOUDY    37  36  96 CALM      30.12S
HAILEY         MOCLDY    37  34  87 NW10      30.24F WCI  30
STANLEY          N/A     32  31  96 CALM      30.21F
SALMON         FOG       37  37 100 CALM      30.15F VSB 3/4
CHALLIS        CLOUDY    34  32  92 VRB5      30.16F WCI  30
$$

IDZ002-004-006-007-026-231400-
NORTHERN IDAHO


CITY           SKY/WX    TMP DP  RH WIND       PRES   REMARKS
LEWISTON       CLOUDY    54  50  86 E7        29.90R
LOWELL           N/A     46  45  96 CALM      30.03F
COEUR D`ALENE  CLOUDY    58  51  78 S10G22    29.84S
MULLAN PASS    RAIN      42  40  92 SW13G26   29.93F FOG
$$



USA.gov is the U.S. government's official web portal to all federal, state and local government web resources and services.